Regional Weather Roundup
Issued by NWS

Home | Current Version | Previous Version | Graphics & Text | Print | Product List | Glossary On
Versions: 1 2 3 4 5 6 7 8 9 10 11 12 13 14 15 16 17 18 19 20 21 22 23 24 25 26 27 28 29 30 31 32 33 34 35 36 37 38 39 40 41 42 43 44 45 46 47 48 49 50
272
ASUS44 KLIX 271907
RWRLA
LOUISIANA WEATHER ROUNDUP
NATIONAL WEATHER SERVICE NEW ORLEANS LA
200 PM CDT FRI MAR 27 2015

NOTE: "FAIR" INDICATES FEW OR NO CLOUDS BELOW 12,000 FEET WITH NO
      SIGNIFICANT WEATHER AND/OR OBSTRUCTIONS TO VISIBILITY.
      SKY/WX - SKY CONDITION AND SIGNIFICANT WEATHER.
      TMP - AIR TEMPERATURE.    DP   - DEWPOINT TEMPERATURE.
      RH  - RELATIVE HUMIDITY.  PRES - PRESSURE.
      HX  - HEAT INDEX.         WCI  - WIND CHILL INDEX.

*  THESE STATIONS ARE NOT NWS OR FAA STATIONS AND ARE NOT UNDER
   NWS QUALITY CONTROL.

LAZ040-048-061>063-065-066-069-272000-
SOUTHEAST LOUISIANA

CITY           SKY/WX    TMP DP  RH WIND       PRES   REMARKS
N.O. AUDUBON   NOT AVBL
N.O. INTL ARPT FAIR      65  35  33 NW17      30.05F
N.O. LAKEFRONT FAIR      66  35  31 NW12      30.05F
SLIDELL        FAIR      66  30  26 NW10G21   30.02F
BATON ROUGE    FAIR      67  39  35 W14G21    30.07F
BOOTHVILLE     FAIR      63  42  46 NW10G18   30.05F
BELLE CHASSE   FAIR      65  31  28 VRB6      30.04F
BOGALUSA*        N/A     67  31  25 NW12      30.04F
GALLIANO*      FAIR      68  36  31 MISG      30.06F
NEW ROADS*     FAIR      63  41  44 NW6       30.08F
GONZALES*      FAIR      67  37  32 NW13G22   30.06F
HAMMOND*       FAIR      68  30  24 N10G18    30.06S
HOUMA*         SUNNY     66  36  32 NW9       30.06F
PORT FOURCHON* CLEAR     64  37  36 NW12G18   30.10R

$$

LAZ041-044-053-054-272000-
SOUTHWEST LOUISIANA

CITY           SKY/WX    TMP DP  RH WIND       PRES   REMARKS
LAKE CHARLES   FAIR      71  38  29 NW12      30.10F
LAFAYETTE      FAIR      67  40  37 NW15G21   30.09F
PATTERSON      FAIR      64  39  39 NW8       30.10S
SALT POINT       N/A     65  44  46 W12       30.08F
NEW IBERIA     FAIR      68  40  35 NW13      30.10F
CHENAULT AIRPK NOT AVBL

$$

LAZ027-028-272000-
CENTRAL LOUISIANA

CITY           SKY/WX    TMP DP  RH WIND       PRES   REMARKS
FORT POLK      FAIR      70  38  31 NW17      30.07F
ALEXANDRIA INT FAIR      68  39  34 NW13      30.05F
ALEXANDRIA     FAIR      68  37  32 NW9G21    30.06F

$$

LAZ001-002-272000-
NORTHWEST LOUISIANA

CITY           SKY/WX    TMP DP  RH WIND       PRES   REMARKS
SHREVEPORT     FAIR      65  38  36 NW17G24   30.09F
BARKSDALE AFB  PTSUNNY   66  36  33 NW18G26   30.09F
DTN SHREVEPORT FAIR      64  37  36 NW17G24   30.10S

$$

LAZ014-016-272000-
NORTHEAST LOUISIANA

CITY           SKY/WX    TMP DP  RH WIND       PRES   REMARKS
MONROE         FAIR      65  41  41 NW10G23   30.07F
TALLULAH       FAIR      60  36  40 MISG      30.09F

$$




USA.gov is the U.S. government's official web portal to all federal, state and local government web resources and services.